Date String (YYYY-MM-DD hh:mm:ss) UTC,Instrument flags,Ambient pressure (hPa),Sample flow (lpm),Bypass flow (lpm),Sample temperature (°C),Ambient temperature (°C),ASC tube jacket temperature (°C),LED temperature (°C),Box temperature (°C),Sample RH (%),Span deviation,Mass concentration (μg/m³),Mass concentration (μg/m³),Mass concentration (μg/m³)
DateTimeUTC,F1_M11,P_M11,Q1_M11,Q2_M11,T1_M11,T2_M11,T3_M11,T4_M11,T5_M11,U1_M11,ZSPAN_M11,X0_M11,X2_M11,X1_M11
2022-06-18 22:00:00,,0823.8,5.01,0.00,29.1,27.8,00.0,37.8,31.1,24.2,0000.0,0009.79,0005.42,0004.30
2022-06-18 22:01:00,,0823.8,4.99,0.00,29.1,28.0,00.0,37.9,31.2,24.2,0000.0,0009.79,0005.40,0004.29
2022-06-18 22:02:00,,0823.7,5.00,0.00,29.2,28.2,00.0,37.9,31.2,24.1,0000.0,0009.81,0005.40,0004.29
2022-06-18 22:03:00,,0823.7,5.00,0.00,29.2,27.8,00.0,37.8,31.1,24.1,0000.0,0009.86,0005.39,0004.30
2022-06-18 22:04:00,,0823.7,5.00,0.00,29.1,27.1,00.0,37.8,30.9,24.2,0000.0,0010.12,0005.46,0004.30
2022-06-18 22:05:00,,0823.7,5.00,0.00,29.1,27.0,00.0,37.8,30.9,24.1,0000.0,0010.07,0005.43,0004.30
2022-06-18 22:06:00,,0823.7,5.00,0.00,29.0,27.0,00.0,37.8,30.9,24.4,0000.0,0009.85,0005.42,0004.30
2022-06-18 22:07:00,,0823.7,4.99,0.00,29.0,27.2,00.0,37.8,30.9,24.6,0000.0,0009.94,0005.45,0004.31
2022-06-18 22:08:00,,0823.7,5.01,0.00,29.0,27.4,00.0,37.8,30.9,24.7,0000.0,0010.12,0005.45,0004.30
2022-06-18 22:09:00,,0823.6,5.00,0.00,29.0,27.6,00.0,37.8,31.0,24.6,0000.0,0010.30,0005.49,0004.29
2022-06-18 22:10:00,,0823.7,5.01,0.00,29.1,27.8,00.0,37.8,31.1,24.5,0000.0,0010.27,0005.46,0004.29
2022-06-18 22:11:00,,0823.7,5.00,0.00,29.1,28.0,00.0,37.8,31.1,24.2,0000.0,0010.26,0005.44,0004.27
2022-06-18 22:12:00,,0823.6,5.00,0.00,29.1,28.1,00.0,37.9,31.2,23.8,0000.0,0010.17,0005.42,0004.26
2022-06-18 22:13:00,,0823.6,5.01,0.00,29.2,28.3,00.0,37.9,31.3,23.6,0000.0,0010.01,0005.37,0004.25
2022-06-18 22:14:00,,0823.5,5.01,0.00,29.2,28.1,00.0,37.9,31.2,23.6,0000.0,0010.08,0005.41,0004.25
2022-06-18 22:15:00,,0823.5,5.01,0.00,29.2,27.3,00.0,37.8,30.9,23.6,0000.0,0009.78,0005.31,0004.23
2022-06-18 22:16:00,,0823.4,4.99,0.00,29.1,27.0,00.0,37.8,30.9,23.7,0000.0,0009.58,0005.24,0004.23
2022-06-18 22:17:00,,0823.4,4.99,0.00,29.1,27.1,00.0,37.8,30.9,23.7,0000.0,0009.79,0005.20,0004.21
2022-06-18 22:18:00,,0823.4,5.00,0.00,29.0,27.2,00.0,37.8,30.9,23.8,0000.0,0009.70,0005.16,0004.19
2022-06-18 22:19:00,,0823.4,5.00,0.00,29.0,27.4,00.0,37.8,31.0,23.7,0000.0,0009.31,0005.07,0004.18
2022-06-18 22:20:00,,0823.4,4.98,0.00,29.1,27.6,00.0,37.8,31.0,23.8,0000.0,0008.97,0004.97,0004.15
2022-06-18 22:21:00,,0823.4,5.01,0.00,29.1,27.8,00.0,37.8,31.1,23.7,0000.0,0008.82,0004.91,0004.12
2022-06-18 22:22:00,,0823.3,5.01,0.00,29.1,28.0,00.0,37.9,31.2,23.6,0000.0,0008.66,0004.83,0004.09
2022-06-18 22:23:00,,0823.3,5.00,0.00,29.2,28.1,00.0,37.9,31.2,23.5,0000.0,0008.66,0004.82,0004.07
2022-06-18 22:24:00,,0823.3,5.00,0.00,29.2,28.3,00.0,37.9,31.3,23.4,0000.0,0008.87,0004.86,0004.05
2022-06-18 22:25:00,,0823.4,5.01,0.00,29.2,28.2,00.0,37.9,31.2,23.3,0000.0,0008.81,0004.82,0004.02
2022-06-18 22:26:00,,0823.3,5.00,0.00,29.2,27.4,00.0,37.9,31.0,23.4,0000.0,0008.67,0004.76,0003.99
2022-06-18 22:27:00,,0823.4,4.99,0.00,29.1,27.0,00.0,37.8,30.9,23.5,0000.0,0008.60,0004.74,0003.96
2022-06-18 22:28:00,,0823.4,5.00,0.00,29.1,27.0,00.0,37.8,30.9,23.6,0000.0,0008.42,0004.71,0003.94
2022-06-18 22:29:00,,0823.4,5.01,0.00,29.1,27.2,00.0,37.8,30.9,23.8,0000.0,0008.31,0004.66,0003.91
2022-06-18 22:30:00,,0823.3,5.00,0.00,29.1,27.3,00.0,37.8,31.0,23.6,0000.0,0008.35,0004.66,0003.88
2022-06-18 22:31:00,,0823.3,4.99,0.00,29.1,27.5,00.0,37.8,31.0,23.8,0000.0,0008.44,0004.69,0003.87
2022-06-18 22:32:00,,0823.3,5.00,0.00,29.1,27.7,00.0,37.9,31.1,23.8,0000.0,0008.54,0004.71,0003.85
2022-06-18 22:33:00,,0823.3,5.00,0.00,29.1,27.9,00.0,37.9,31.1,23.6,0000.0,0008.68,0004.72,0003.85
2022-06-18 22:34:00,,0823.3,5.00,0.00,29.2,28.1,00.0,37.9,31.2,23.5,0000.0,0008.90,0004.75,0003.84
2022-06-18 22:35:00,,0823.3,5.01,0.00,29.2,28.2,00.0,37.9,31.3,23.2,0000.0,0008.78,0004.73,0003.82
2022-06-18 22:36:00,,0823.4,5.00,0.00,29.2,27.9,00.0,37.9,31.2,23.3,0000.0,0008.74,0004.71,0003.82
2022-06-18 22:37:00,,0823.4,5.00,0.00,29.2,27.1,00.0,37.8,30.9,23.4,0000.0,0008.74,0004.68,0003.81
2022-06-18 22:38:00,,0823.4,4.99,0.00,29.1,26.9,00.0,37.8,30.8,23.4,0000.0,0008.74,0004.66,0003.79
2022-06-18 22:39:00,,0823.4,5.01,0.00,29.0,27.0,00.0,37.8,30.9,23.4,0000.0,0008.81,0004.68,0003.78
2022-06-18 22:40:00,,0823.4,5.00,0.00,29.0,27.1,00.0,37.8,30.9,23.6,0000.0,0008.93,0004.72,0003.78
2022-06-18 22:41:00,,0823.4,5.00,0.00,29.0,27.3,00.0,37.8,30.9,23.8,0000.0,0008.87,0004.69,0003.76
2022-06-18 22:42:00,,0823.4,5.00,0.00,29.1,27.6,00.0,37.8,31.0,23.6,0000.0,0008.87,0004.68,0003.74
2022-06-18 22:43:00,,0823.4,5.00,0.00,29.1,27.8,00.0,37.8,31.1,23.6,0000.0,0008.74,0004.62,0003.73
2022-06-18 22:44:00,,0823.4,5.01,0.00,29.1,28.0,00.0,37.9,31.1,23.6,0000.0,0008.48,0004.57,0003.71
2022-06-18 22:45:00,,0823.4,5.00,0.00,29.2,28.1,00.0,37.9,31.2,23.3,0000.0,0008.21,0004.50,0003.69
2022-06-18 22:46:00,,0823.4,4.99,0.00,29.2,28.2,00.0,37.9,31.2,23.1,0000.0,0008.14,0004.44,0003.68
2022-06-18 22:47:00,,0823.4,5.01,0.00,29.2,27.6,00.0,37.8,31.1,23.0,0000.0,0008.07,0004.39,0003.66
2022-06-18 22:48:00,,0823.4,5.00,0.00,29.1,27.1,00.0,37.8,30.9,22.9,0000.0,0008.25,0004.37,0003.64
2022-06-18 22:49:00,,0823.3,5.00,0.00,29.1,27.0,00.0,37.8,30.9,22.9,0000.0,0008.41,0004.38,0003.64
2022-06-18 22:50:00,,0823.4,5.00,0.00,29.0,27.1,00.0,37.8,30.9,23.0,0000.0,0008.39,0004.32,0003.61
2022-06-18 22:51:00,,0823.3,5.00,0.00,29.0,27.3,00.0,37.8,30.9,22.9,0000.0,0008.22,0004.27,0003.59
2022-06-18 22:52:00,,0823.3,4.99,0.00,29.1,27.5,00.0,37.8,31.0,22.9,0000.0,0008.24,0004.28,0003.58
2022-06-18 22:53:00,,0823.2,4.99,0.00,29.1,27.7,00.0,37.8,31.0,22.8,0000.0,0008.37,0004.31,0003.59
2022-06-18 22:54:00,,0823.2,5.00,0.00,29.1,27.9,00.0,37.8,31.1,22.7,0000.0,0008.44,0004.33,0003.58
2022-06-18 22:55:00,,0823.3,5.01,0.00,29.1,28.0,00.0,37.9,31.2,22.7,0000.0,0008.54,0004.35,0003.58
2022-06-18 22:56:00,,0823.2,4.99,0.00,29.2,28.2,00.0,37.9,31.2,22.6,0000.0,0008.52,0004.35,0003.59
2022-06-18 22:57:00,,0823.3,5.00,0.00,29.2,28.3,00.0,37.9,31.3,22.6,0000.0,0008.44,0004.35,0003.59
2022-06-18 22:58:00,,0823.2,4.99,0.00,29.2,27.8,00.0,37.9,31.1,22.5,0000.0,0008.72,0004.41,0003.57
2022-06-18 22:59:00,,0823.2,5.00,0.00,29.2,27.1,00.0,37.8,30.9,22.6,0000.0,0008.55,0004.41,0003.56
